TimePST,TemperatureF,Dew PointF,Humidity,Sea Level PressureIn,VisibilityMPH,Wind Direction,Wind SpeedMPH,Gust SpeedMPH,PrecipitationIn,Events,Conditions,WindDirDegrees,DateUTC
12:53 AM,44.1,8.1,23,30.32,10.0,NW,5.8,-,N/A,,Clear,310,2013-01-20 08:53:00
1:53 AM,39.9,8.1,27,30.34,10.0,Calm,Calm,-,N/A,,Clear,0,2013-01-20 09:53:00
2:53 AM,45.0,8.1,22,30.32,10.0,NNW,11.5,-,N/A,,Clear,330,2013-01-20 10:53:00
3:53 AM,39.0,8.1,28,30.32,10.0,NW,5.8,-,N/A,,Clear,310,2013-01-20 11:53:00
4:53 AM,39.9,9.0,28,30.33,10.0,Calm,Calm,-,N/A,,Clear,0,2013-01-20 12:53:00
5:53 AM,36.0,8.1,31,30.34,10.0,Variable,4.6,-,N/A,,Clear,0,2013-01-20 13:53:00
6:53 AM,41.0,9.0,27,30.35,10.0,North,6.9,-,N/A,,Clear,360,2013-01-20 14:53:00
7:53 AM,39.0,12.0,33,30.36,10.0,WNW,6.9,-,N/A,,Clear,300,2013-01-20 15:53:00
8:53 AM,48.0,10.0,22,30.37,10.0,NNW,6.9,-,N/A,,Clear,340,2013-01-20 16:53:00
9:53 AM,53.1,9.0,17,30.37,10.0,NNW,6.9,-,N/A,,Clear,330,2013-01-20 17:53:00
10:53 AM,57.0,9.0,15,30.34,10.0,NNE,4.6,-,N/A,,Clear,30,2013-01-20 18:53:00
11:53 AM,59.0,9.0,14,30.30,10.0,North,4.6,-,N/A,,Clear,10,2013-01-20 19:53:00
12:53 PM,59.0,8.1,13,30.27,10.0,ESE,3.5,-,N/A,,Clear,110,2013-01-20 20:53:00
1:53 PM,60.1,7.0,12,30.25,10.0,SSE,3.5,-,N/A,,Clear,150,2013-01-20 21:53:00
2:53 PM,62.1,7.0,11,30.22,10.0,Calm,Calm,-,N/A,,Clear,0,2013-01-20 22:53:00
3:53 PM,62.1,7.0,11,30.22,10.0,Calm,Calm,-,N/A,,Clear,0,2013-01-20 23:53:00
4:53 PM,57.9,8.1,14,30.23,10.0,Calm,Calm,-,N/A,,Clear,0,2013-01-21 00:53:00
5:53 PM,55.0,10.0,17,30.25,10.0,Calm,Calm,-,N/A,,Clear,0,2013-01-21 01:53:00
6:53 PM,48.9,14.0,25,30.25,10.0,WNW,5.8,-,N/A,,Clear,290,2013-01-21 02:53:00
7:53 PM,48.0,15.1,27,30.27,10.0,NNW,3.5,-,N/A,,Clear,330,2013-01-21 03:53:00
8:53 PM,46.9,9.0,21,30.27,10.0,NNW,5.8,-,N/A,,Clear,330,2013-01-21 04:53:00
9:53 PM,51.1,6.1,16,30.27,10.0,North,10.4,-,N/A,,Clear,10,2013-01-21 05:53:00
10:53 PM,48.0,7.0,19,30.27,10.0,Calm,Calm,-,N/A,,Clear,0,2013-01-21 06:53:00
11:53 PM,46.0,7.0,20,30.27,10.0,NW,9.2,-,N/A,,Clear,320,2013-01-21 07:53:00